Вернуться в каталог

BREEZE-M DEB

АктивенHEO
NORAD 38568·DEBRIS·🇷🇺 Russia

Запущен Mar 14, 2008 с Baikonur Cosmodrome

Loading…

Ближайшие Пролёты (ближайшие 24 часа)

TLE

СвежийSource: Space-Track

Эпоха: Sep 13, 2026, 03:33 UTC

1 38568U 08011P   26256.14806135  .00002411  00000-0  16434-1 0  9996
2 38568  49.8967 110.2998 6055295  36.6923 352.5693  3.68255512178260

Отслеживайте BREEZE-M DEB в реальном времени с AllMySat

Download on the App Store